WAT410 KAGC-KBGR

Flight info

Callsign WAT410
Flight time N/A
Altitude 39000
Route TYROO PSB ALB
Aircraft E55P/M-SBDFGHJ2RWY/LB2

Departure

Time 2026-05-07 17:04
Airport Allegheny County Airport (KAGC)

Arrival

Time N/A
Airport Bangor International Airport (KBGR)
Time Latitude Longitude Altitude Speed Heading
2026-05-07 16:41 40.35251 -79.93824 1254 ft 0 kts 126°
2026-05-07 16:56 40.35249 -79.93822 1254 ft 0 kts 127°
2026-05-07 16:56 40.35245 -79.93813 1254 ft 0 kts 126°
2026-05-07 16:58 40.35244 -79.93813 1254 ft 0 kts 121°
2026-05-07 16:58 40.35245 -79.93804 1254 ft 1 kts 74°
2026-05-07 16:58 40.35260 -79.93780 1254 ft 4 kts 35°
2026-05-07 16:58 40.35290 -79.93757 1254 ft 4 kts 21°
2026-05-07 16:59 40.35323 -79.93743 1254 ft 4 kts 10°
2026-05-07 16:59 40.35344 -79.93717 1254 ft 5 kts 75°
2026-05-07 16:59 40.35347 -79.93654 1254 ft 8 kts 90°
2026-05-07 16:59 40.35347 -79.93556 1254 ft 12 kts 90°
2026-05-07 17:00 40.35348 -79.93426 1254 ft 15 kts 89°
2026-05-07 17:00 40.35348 -79.93272 1254 ft 17 kts 92°
2026-05-07 17:00 40.35348 -79.93114 1254 ft 16 kts 89°
2026-05-07 17:00 40.35349 -79.92955 1254 ft 16 kts 90°
2026-05-07 17:01 40.35349 -79.92799 1254 ft 16 kts 90°
2026-05-07 17:01 40.35350 -79.92644 1254 ft 16 kts 90°
2026-05-07 17:01 40.35350 -79.92493 1254 ft 16 kts 89°
2026-05-07 17:01 40.35352 -79.92344 1254 ft 16 kts 89°
2026-05-07 17:02 40.35355 -79.92196 1254 ft 16 kts 89°
2026-05-07 17:02 40.35357 -79.92048 1254 ft 15 kts 89°
2026-05-07 17:02 40.35359 -79.91900 1254 ft 15 kts 88°
2026-05-07 17:02 40.35361 -79.91818 1254 ft 4 kts 84°
2026-05-07 17:03 40.35386 -79.91785 1254 ft 6 kts
2026-05-07 17:03 40.35431 -79.91799 1254 ft 6 kts 292°
2026-05-07 17:03 40.35433 -79.91824 1254 ft 0 kts 270°
2026-05-07 17:03 40.35433 -79.91825 1254 ft 4 kts 270°
2026-05-07 17:04 40.35433 -79.92244 1254 ft 82 kts 269°
2026-05-07 17:04 40.35414 -79.93272 1411 ft 122 kts 270°
2026-05-07 17:04 40.35394 -79.94482 1884 ft 137 kts 269°
2026-05-07 17:04 40.35197 -79.95785 2510 ft 146 kts 248°
2026-05-07 17:05 40.34410 -79.96883 2812 ft 181 kts 213°
2026-05-07 17:05 40.33054 -79.97299 3281 ft 210 kts 176°
2026-05-07 17:05 40.31632 -79.96485 3928 ft 230 kts 141°
2026-05-07 17:05 40.30701 -79.94691 4694 ft 239 kts 109°
2026-05-07 17:06 40.30466 -79.92438 5535 ft 243 kts 86°
2026-05-07 17:06 40.30826 -79.90186 6428 ft 244 kts 72°
2026-05-07 17:06 40.31366 -79.87987 7246 ft 248 kts 69°
2026-05-07 17:06 40.31979 -79.85735 8032 ft 255 kts 68°
2026-05-07 17:07 40.32645 -79.83350 8468 ft 278 kts 68°
2026-05-07 17:07 40.33373 -79.80751 8929 ft 298 kts 68°
2026-05-07 17:07 40.34127 -79.78044 9747 ft 303 kts 68°
2026-05-07 17:07 40.34891 -79.75318 10501 ft 310 kts 68°
2026-05-07 17:08 40.35690 -79.72463 10846 ft 332 kts 68°
2026-05-07 17:08 40.36523 -79.69465 11209 ft 351 kts 68°
2026-05-07 17:08 40.37419 -79.66252 11633 ft 365 kts 69°
2026-05-07 17:08 40.38318 -79.63020 12348 ft 369 kts 69°
2026-05-07 17:09 40.39232 -79.59727 13087 ft 372 kts 69°
2026-05-07 17:09 40.40161 -79.56383 13739 ft 378 kts 69°
2026-05-07 17:09 40.41075 -79.53072 14360 ft 384 kts 69°
2026-05-07 17:09 40.41992 -79.49754 14909 ft 391 kts 69°
2026-05-07 17:10 40.42936 -79.46346 15493 ft 397 kts 69°
2026-05-07 17:10 40.43869 -79.42960 16107 ft 402 kts 68°
2026-05-07 17:10 40.44827 -79.39481 16667 ft 408 kts 69°
2026-05-07 17:10 40.45800 -79.35954 17215 ft 413 kts 68°
2026-05-07 17:11 40.46786 -79.32366 17749 ft 419 kts 69°
2026-05-07 17:11 40.47800 -79.28672 18270 ft 424 kts 69°
2026-05-07 17:11 40.48803 -79.25007 18768 ft 430 kts 69°
2026-05-07 17:11 40.49826 -79.21285 19285 ft 434 kts 69°
2026-05-07 17:12 40.50854 -79.17514 19816 ft 438 kts 69°
2026-05-07 17:12 40.51881 -79.13749 20402 ft 440 kts 69°
2026-05-07 17:12 40.52915 -79.09973 20944 ft 442 kts 69°
2026-05-07 17:12 40.53951 -79.06145 21534 ft 444 kts 69°
2026-05-07 17:13 40.54997 -79.02306 22062 ft 446 kts 69°
2026-05-07 17:13 40.56050 -78.98416 22659 ft 447 kts 70°
2026-05-07 17:13 40.57107 -78.94511 23204 ft 449 kts 69°
2026-05-07 17:13 40.58155 -78.90620 23660 ft 453 kts 70°
2026-05-07 17:14 40.59212 -78.86704 24214 ft 454 kts 70°
2026-05-07 17:14 40.60274 -78.82776 24776 ft 455 kts 70°
2026-05-07 17:14 40.61326 -78.78860 25316 ft 455 kts 69°
2026-05-07 17:14 40.62397 -78.74867 25825 ft 457 kts 70°
2026-05-07 17:15 40.63480 -78.70810 26329 ft 459 kts 70°
2026-05-07 17:15 40.64614 -78.66593 26870 ft 460 kts 70°
2026-05-07 17:15 40.65735 -78.62426 27353 ft 462 kts 70°
2026-05-07 17:15 40.66789 -78.58431 27859 ft 463 kts 70°
2026-05-07 17:16 40.67858 -78.54423 28383 ft 462 kts 69°
2026-05-07 17:16 40.68969 -78.50282 28858 ft 464 kts 70°
2026-05-07 17:16 40.70055 -78.46175 29276 ft 466 kts 70°
2026-05-07 17:16 40.71132 -78.42099 29706 ft 468 kts 70°
2026-05-07 17:17 40.72234 -78.37954 30178 ft 468 kts 70°
2026-05-07 17:17 40.73369 -78.33776 30641 ft 467 kts 64°
2026-05-07 17:17 40.75050 -78.30128 31022 ft 460 kts 48°
2026-05-07 17:17 40.76952 -78.26679 31421 ft 460 kts 48°
2026-05-07 17:18 40.78828 -78.23216 31746 ft 463 kts 49°
2026-05-07 17:18 40.80701 -78.19723 32140 ft 462 kts 49°
2026-05-07 17:18 40.82606 -78.16182 32475 ft 463 kts 49°
2026-05-07 17:18 40.84493 -78.12658 32789 ft 465 kts 49°
2026-05-07 17:19 40.86391 -78.09106 33085 ft 467 kts 49°
2026-05-07 17:19 40.88288 -78.05547 33436 ft 466 kts 49°
2026-05-07 17:19 40.90172 -78.02005 33744 ft 467 kts 48°
2026-05-07 17:19 40.92040 -77.98476 34036 ft 470 kts 52°
2026-05-07 17:20 40.93731 -77.94817 34462 ft 467 kts 54°
2026-05-07 17:20 40.95463 -77.91098 34865 ft 463 kts 54°
2026-05-07 17:20 40.97166 -77.87429 35225 ft 461 kts 53°
2026-05-07 17:20 40.98872 -77.83769 35599 ft 457 kts 53°
2026-05-07 17:21 41.00541 -77.80188 35965 ft 455 kts 53°
2026-05-07 17:21 41.02220 -77.76570 36313 ft 454 kts 54°
2026-05-07 17:21 41.03878 -77.73007 36636 ft 454 kts 54°
2026-05-07 17:21 41.05538 -77.69425 36941 ft 453 kts 54°
2026-05-07 17:22 41.07216 -77.65803 37256 ft 452 kts 54°
2026-05-07 17:22 41.08850 -77.62261 37575 ft 451 kts 54°
2026-05-07 17:22 41.10523 -77.58661 37881 ft 449 kts 54°
2026-05-07 17:22 41.12149 -77.55119 38219 ft 446 kts 54°
2026-05-07 17:23 41.13781 -77.51590 38468 ft 446 kts 55°
2026-05-07 17:23 41.15424 -77.48016 38678 ft 447 kts 55°
2026-05-07 17:23 41.17056 -77.44487 38860 ft 449 kts 54°
2026-05-07 17:23 41.18680 -77.40936 38884 ft 456 kts 54°
2026-05-07 17:24 41.22047 -77.33604 38886 ft 469 kts 56°
2026-05-07 17:24 41.25468 -77.26133 38884 ft 481 kts 56°
2026-05-07 17:25 41.28972 -77.18452 38892 ft 491 kts 56°
2026-05-07 17:25 41.32555 -77.10574 38885 ft 501 kts 56°
2026-05-07 17:26 41.36201 -77.02557 38904 ft 511 kts 56°
2026-05-07 17:26 41.39905 -76.94388 38889 ft 520 kts 56°
2026-05-07 17:27 41.43638 -76.86111 38901 ft 528 kts 56°
2026-05-07 17:27 41.47462 -76.77615 38904 ft 537 kts 56°
2026-05-07 17:28 41.51331 -76.69009 38889 ft 544 kts 56°
2026-05-07 17:28 41.55192 -76.60386 38895 ft 541 kts 56°
2026-05-07 17:29 41.59046 -76.51752 38868 ft 535 kts 56°
2026-05-07 17:29 41.62823 -76.43280 38896 ft 529 kts 56°
2026-05-07 17:30 41.66546 -76.34885 38907 ft 523 kts 57°
2026-05-07 17:30 41.70237 -76.26547 38890 ft 518 kts 57°
2026-05-07 17:31 41.73909 -76.18248 38884 ft 516 kts 57°
2026-05-07 17:31 41.77533 -76.10010 38909 ft 514 kts 57°
2026-05-07 17:32 41.81146 -76.01791 38892 ft 515 kts 57°
2026-05-07 17:32 41.84161 -75.94909 38899 ft 514 kts 57°
2026-05-07 17:33 41.88374 -75.85254 38887 ft 515 kts 57°
2026-05-07 17:33 41.91980 -75.76982 38898 ft 515 kts 57°
2026-05-07 17:34 41.95590 -75.68665 38893 ft 516 kts 57°
2026-05-07 17:34 41.99209 -75.60316 38904 ft 516 kts 57°
2026-05-07 17:35 42.02819 -75.51956 38887 ft 518 kts 57°
2026-05-07 17:35 42.06466 -75.43497 38887 ft 518 kts 57°
2026-05-07 17:36 42.10118 -75.34985 38893 ft 519 kts 58°
2026-05-07 17:36 42.13751 -75.26502 38854 ft 518 kts 58°
2026-05-07 17:37 42.17406 -75.17940 38852 ft 518 kts 58°
2026-05-07 17:37 42.21035 -75.09412 38865 ft 516 kts 58°
2026-05-07 17:38 42.24648 -75.00911 38837 ft 516 kts 58°
2026-05-07 17:38 42.28228 -74.92448 38859 ft 515 kts 58°
2026-05-07 17:39 42.31834 -74.83897 38876 ft 515 kts 58°
2026-05-07 17:39 42.35416 -74.75399 38873 ft 514 kts 58°
2026-05-07 17:40 42.38979 -74.66917 38850 ft 515 kts 58°
2026-05-07 17:40 42.42538 -74.58400 38866 ft 514 kts 58°
2026-05-07 17:41 42.46078 -74.49916 38872 ft 516 kts 58°
2026-05-07 17:41 42.49638 -74.41365 38857 ft 515 kts 58°
2026-05-07 17:42 42.53167 -74.32849 38849 ft 517 kts 58°
2026-05-07 17:42 42.56729 -74.24255 38832 ft 515 kts 59°
2026-05-07 17:43 42.60221 -74.15771 38835 ft 514 kts 59°
2026-05-07 17:43 42.63736 -74.07228 38862 ft 513 kts 59°
2026-05-07 17:44 42.67222 -73.98734 38864 ft 513 kts 59°
2026-05-07 17:44 42.70705 -73.90192 38845 ft 512 kts 59°
2026-05-07 17:45 42.74213 -73.81591 38866 ft 513 kts 59°
2026-05-07 17:45 42.77908 -73.73250 38870 ft 511 kts 55°
2026-05-07 17:46 42.81652 -73.64923 38866 ft 511 kts 56°
2026-05-07 17:46 42.85356 -73.56656 38864 ft 511 kts 56°
2026-05-07 17:47 42.89052 -73.48377 38845 ft 512 kts 56°
2026-05-07 17:47 42.92757 -73.40060 38845 ft 513 kts 56°
2026-05-07 17:48 42.96495 -73.31634 38856 ft 512 kts 56°
2026-05-07 17:48 43.00223 -73.23217 38873 ft 511 kts 56°
2026-05-07 17:49 43.03950 -73.14765 38846 ft 511 kts 56°
2026-05-07 17:49 43.07653 -73.06352 38845 ft 512 kts 57°
2026-05-07 17:50 43.11388 -72.97852 38814 ft 512 kts 56°
2026-05-07 17:50 43.15121 -72.89320 38825 ft 512 kts 56°
2026-05-07 17:51 43.18787 -72.80920 38816 ft 512 kts 57°
2026-05-07 17:51 43.22534 -72.72292 38824 ft 512 kts 57°
2026-05-07 17:52 43.26208 -72.63833 38831 ft 512 kts 57°
2026-05-07 17:52 43.29842 -72.55425 38829 ft 511 kts 57°
2026-05-07 17:53 43.33392 -72.46851 38844 ft 512 kts 62°
2026-05-07 17:53 43.36586 -72.37933 38830 ft 513 kts 62°
2026-05-07 17:54 43.39756 -72.28989 38816 ft 513 kts 63°
2026-05-07 17:54 43.42919 -72.20050 38816 ft 512 kts 63°
2026-05-07 17:55 43.46060 -72.11136 38809 ft 512 kts 63°
2026-05-07 17:55 43.49239 -72.02073 38800 ft 512 kts 63°
2026-05-07 17:56 43.52348 -71.93187 38787 ft 511 kts 63°
2026-05-07 17:56 43.55471 -71.84232 38795 ft 511 kts 64°
2026-05-07 17:57 43.58091 -71.76703 38790 ft 511 kts 63°
2026-05-07 17:57 43.61701 -71.66285 38797 ft 511 kts 63°
2026-05-07 17:58 43.64806 -71.57285 38805 ft 511 kts 63°
2026-05-07 17:58 43.67860 -71.48405 38810 ft 511 kts 64°
2026-05-07 17:59 43.70973 -71.39359 38722 ft 514 kts 63°
2026-05-07 17:59 43.72530 -71.34789 38099 ft 526 kts 65°
2026-05-07 17:59 43.74150 -71.30055 37568 ft 533 kts 65°
2026-05-07 18:00 43.75738 -71.25391 37045 ft 539 kts 65°
2026-05-07 18:00 43.77362 -71.20628 36512 ft 538 kts 65°
2026-05-07 18:00 43.78987 -71.15816 35917 ft 537 kts 64°
2026-05-07 18:00 43.80599 -71.11090 35315 ft 538 kts 64°
2026-05-07 18:01 43.82209 -71.06345 34685 ft 539 kts 64°
2026-05-07 18:01 43.83823 -71.01543 34064 ft 539 kts 64°
2026-05-07 18:01 43.85445 -70.96772 33447 ft 539 kts 64°
2026-05-07 18:01 43.87029 -70.92033 32911 ft 539 kts 64°
2026-05-07 18:02 43.90247 -70.82474 31716 ft 539 kts 64°
2026-05-07 18:02 43.91845 -70.77715 31109 ft 538 kts 64°
2026-05-07 18:02 43.93447 -70.72898 30494 ft 537 kts 64°
2026-05-07 18:03 43.95002 -70.68240 29897 ft 536 kts 64°
2026-05-07 18:03 43.96580 -70.63524 29271 ft 534 kts 64°
2026-05-07 18:03 43.98209 -70.58874 28634 ft 530 kts 59°
2026-05-07 18:03 44.00007 -70.54404 28017 ft 526 kts 59°
2026-05-07 18:04 44.01817 -70.49915 27389 ft 522 kts 59°
2026-05-07 18:04 44.03593 -70.45532 26773 ft 518 kts 59°
2026-05-07 18:04 44.05354 -70.41167 26162 ft 513 kts 59°
2026-05-07 18:04 44.07112 -70.36778 25521 ft 509 kts 59°
2026-05-07 18:05 44.08815 -70.32534 24897 ft 503 kts 60°
2026-05-07 18:05 44.10511 -70.28307 24232 ft 498 kts 61°
2026-05-07 18:05 44.12210 -70.24081 23532 ft 492 kts 61°
2026-05-07 18:05 44.13872 -70.19894 22794 ft 487 kts 60°
2026-05-07 18:06 44.15517 -70.15791 22067 ft 482 kts 61°
2026-05-07 18:06 44.17135 -70.11739 21348 ft 476 kts 61°
2026-05-07 18:06 44.18735 -70.07713 20630 ft 471 kts 62°
2026-05-07 18:06 44.20334 -70.03690 19913 ft 466 kts 62°
2026-05-07 18:07 44.21877 -69.99796 19214 ft 461 kts 62°
2026-05-07 18:07 44.23434 -69.95865 18506 ft 456 kts 62°
2026-05-07 18:07 44.24959 -69.92002 17792 ft 451 kts 62°
2026-05-07 18:07 44.26458 -69.88195 17104 ft 446 kts 61°
2026-05-07 18:08 44.27953 -69.84427 16408 ft 440 kts 61°
2026-05-07 18:08 44.29420 -69.80686 15720 ft 435 kts 60°
2026-05-07 18:08 44.30870 -69.77002 15039 ft 429 kts 60°
2026-05-07 18:08 44.32287 -69.73405 14386 ft 424 kts 60°
2026-05-07 18:09 44.33692 -69.69827 13700 ft 419 kts 60°
2026-05-07 18:09 44.35094 -69.66260 13041 ft 413 kts 60°
2026-05-07 18:09 44.36441 -69.62808 12817 ft 389 kts 59°
2026-05-07 18:09 44.37706 -69.59583 12603 ft 365 kts 60°
2026-05-07 18:10 44.38886 -69.56558 12449 ft 346 kts 59°
2026-05-07 18:10 44.40000 -69.53700 12256 ft 329 kts 59°
2026-05-07 18:10 44.41079 -69.50934 11946 ft 318 kts 59°
2026-05-07 18:10 44.42126 -69.48245 11616 ft 312 kts 59°
2026-05-07 18:11 44.43164 -69.45585 11254 ft 308 kts 59°
2026-05-07 18:11 44.43844 -69.43829 11021 ft 305 kts 59°
2026-05-07 18:11 44.45177 -69.40401 10587 ft 299 kts 59°
2026-05-07 18:11 44.46163 -69.37860 10246 ft 295 kts 58°